Regional Weather Roundup
Issued by NWS

Home | Current Version | Previous Version | Graphics & Text | Print | Product List | Glossary On
Versions: 1 2 3 4 5 6 7 8 9 10 11 12 13 14 15 16 17 18 19 20 21 22 23 24 25 26 27 28 29 30 31 32 33 34 35 36 37 38 39 40 41 42 43 44 45 46 47 48 49 50
000
ASUS43 KBIS 301559
RWRND

NORTH DAKOTA REGIONAL WEATHER ROUNDUP
NATIONAL WEATHER SERVICE BISMARCK ND
1100 AM CDT TUE SEP 30 2014

NOTE: "FAIR" INDICATES FEW OR NO CLOUDS BELOW 12,000 FEET WITH NO
SIGNIFICANT WEATHER AND/OR OBSTRUCTIONS TO VISIBILITY.


NDZ001>003-009>011-017-301700-
NORTHWEST NORTH DAKOTA

CITY           SKY/WX    TMP DP  RH WIND       PRES   REMARKS
WILLISTON      LGT RAIN  54  52  93 SE7       29.67F FOG
MINOT          FOG       48  47  96 E16       29.71F VSB 3/4
$$

NDZ018>021-031>035-040>046-301700-
SOUTHWEST NORTH DAKOTA

CITY           SKY/WX    TMP DP  RH WIND       PRES   REMARKS
BISMARCK       CLOUDY    53  50  89 E17       29.66F
GARRISON         N/A     52  50  93 E16G22    29.67F
HETTINGER ARPT CLOUDY    52  51  97 E13       29.57F FOG
$$

NDZ004>008-012>016-024-026-027-054-301700-
NORTHEAST NORTH DAKOTA

CITY           SKY/WX    TMP DP  RH WIND       PRES   REMARKS
GRAND FORKS    CLOUDY    50  44  80 SE15G22   29.89F
DEVILS LAKE    CLOUDY    46  39  76 SE23      29.78F
$$

NDZ022-023-025-028>030-036>039-047>053-301700-
SOUTHEAST NORTH DAKOTA

CITY           SKY/WX    TMP DP  RH WIND       PRES   REMARKS
FARGO          MOSUNNY   52  43  71 SE18G25   29.87F
$$




USA.gov is the U.S. government's official web portal to all federal, state and local government web resources and services.